Погода в Хельсинки

Финляндия     60°10′00″N   24°56′36″E
темп.,
°C
ветер,
м/с
пор.,
м/с
влажн.,
%
обл.,
%
осадки,
мм/ч
давл.,
гПа
погр.,
м
27 ноября, сб
сб2723:00−3св3565100 0.0 1002415
02:00−3св3670100 0.0 1003372
05:00−4св37716 0.0 1004432
08:00−4св48705 0.0 1005409
11:00−4св496656 0.0 1006436
14:00−4св51168100 0.0 1005520
17:00−4св51276100 0.0 1005595
20:00−5св51376100 0.0 1005615
28 ноября, вс
вс2823:00−5св51275100 0.0 1004607
02:00−5ссв51274100 0.0 1004620
05:00−5ссв51172100 0.0 1003595
08:00−5ссв51166100 0.0 1004563
11:00−5св41062100 0.0 1005528
14:00−4св3866100 0.0 1005566
17:00−5св3772100 0.0 1007616
20:00−5св3773100 0.0 1008450
29 ноября, пн
пн2923:00−4св4870100 0.0 1008527
02:00−5св5977100 0.1 1008442
05:00−5св51180100 0.3 1007467
08:00−5св51178100 0.4 1007475
11:00−5св51176100 0.0 1006506
14:00−4св51074100 0.1 1003595
17:00−5св5976100 0.0 1001729
20:00−5ссв51081100 0.1 998809
30 ноября, вт
вт3023:00−5ссв61174100 0.0 995694
02:00−6с61281100 0.2 993574
05:00−6с61184100 0.2 990630
08:00−5с61277100 0.2 989736
11:00−5ссз51173100 0.0 988792
14:00−6ссз5107299 0.0 987739
17:00−7ссз5107471 0.0 988687
20:00−7сз5107575 0.0 989687
1 декабря, ср
ср123:00−8сз5117831 0.0 990555
02:00−8сз512775 0.0 991590
05:00−8сз512745 0.0 993599
08:00−7сз41275100 0.0 994575
11:00−7сз387633 0.0 996338
14:00−6зсз24745 0.0 996227
17:00−6зюз227394 0.0 996106
20:00−6в017095 0.0 994171